AXY541P KBOS-CYYZ

Flight info

Callsign AXY541P
Flight time 0h 45m
Altitude 40000
Route HYLND7 HYLND DCT CAM Q822 GONZZ DCT WOZEE LINNG3
Aircraft A346/H-SDE2E3FGHIJ3J4J5M1RWXY/LB1D1

Departure

Time 2026-05-07 22:24
Airport Boston Logan International Airport (KBOS)

Arrival

Time 2026-05-07 23:09
Airport Toronto Pearson International Airport (CYYZ)
Time Latitude Longitude Altitude Speed Heading
2026-05-07 21:55 42.37275 -71.02636 34 ft 0 kts 219°
2026-05-07 22:09 42.37286 -71.02623 32 ft 2 kts 219°
2026-05-07 22:09 42.37306 -71.02604 32 ft 4 kts 203°
2026-05-07 22:09 42.37322 -71.02600 32 ft 4 kts 163°
2026-05-07 22:09 42.37327 -71.02604 34 ft 0 kts 131°
2026-05-07 22:10 42.37310 -71.02577 34 ft 4 kts 130°
2026-05-07 22:10 42.37293 -71.02550 34 ft 4 kts 130°
2026-05-07 22:10 42.37287 -71.02540 33 ft 0 kts 130°
2026-05-07 22:11 42.37287 -71.02541 33 ft 0 kts 130°
2026-05-07 22:13 42.37287 -71.02540 33 ft 1 kts 130°
2026-05-07 22:13 42.37276 -71.02523 33 ft 4 kts 130°
2026-05-07 22:13 42.37249 -71.02479 34 ft 8 kts 130°
2026-05-07 22:14 42.37202 -71.02416 34 ft 11 kts 137°
2026-05-07 22:14 42.37147 -71.02323 34 ft 14 kts 109°
2026-05-07 22:14 42.37184 -71.02200 34 ft 16 kts 40°
2026-05-07 22:14 42.37237 -71.02074 34 ft 15 kts 91°
2026-05-07 22:15 42.37245 -71.01942 34 ft 14 kts 57°
2026-05-07 22:15 42.37294 -71.01842 34 ft 14 kts 86°
2026-05-07 22:15 42.37248 -71.01763 34 ft 11 kts 132°
2026-05-07 22:15 42.37186 -71.01677 34 ft 14 kts 135°
2026-05-07 22:16 42.37108 -71.01572 34 ft 18 kts 135°
2026-05-07 22:16 42.37015 -71.01447 34 ft 20 kts 135°
2026-05-07 22:16 42.36920 -71.01320 34 ft 17 kts 135°
2026-05-07 22:16 42.36843 -71.01217 34 ft 15 kts 135°
2026-05-07 22:17 42.36766 -71.01149 34 ft 14 kts 166°
2026-05-07 22:17 42.36668 -71.01160 34 ft 13 kts 202°
2026-05-07 22:17 42.36574 -71.01220 34 ft 17 kts 201°
2026-05-07 22:17 42.36458 -71.01275 34 ft 19 kts 199°
2026-05-07 22:18 42.36370 -71.01317 34 ft 9 kts 196°
2026-05-07 22:18 42.36270 -71.01170 34 ft 14 kts 117°
2026-05-07 22:18 42.36222 -71.01033 34 ft 18 kts 114°
2026-05-07 22:19 42.36168 -71.00869 34 ft 20 kts 114°
2026-05-07 22:19 42.36113 -71.00689 35 ft 22 kts 110°
2026-05-07 22:19 42.36061 -71.00480 34 ft 25 kts 108°
2026-05-07 22:19 42.36002 -71.00253 34 ft 26 kts 109°
2026-05-07 22:20 42.35948 -71.00081 34 ft 15 kts 123°
2026-05-07 22:20 42.35915 -71.00030 34 ft 0 kts 134°
2026-05-07 22:21 42.35905 -71.00015 34 ft 5 kts 134°
2026-05-07 22:21 42.35864 -70.99959 34 ft 12 kts 135°
2026-05-07 22:22 42.35786 -70.99855 34 ft 20 kts 135°
2026-05-07 22:22 42.35678 -70.99710 34 ft 23 kts 135°
2026-05-07 22:22 42.35568 -70.99563 34 ft 21 kts 135°
2026-05-07 22:22 42.35493 -70.99416 34 ft 19 kts 92°
2026-05-07 22:23 42.35524 -70.99282 32 ft 6 kts 20°
2026-05-07 22:23 42.35573 -70.99313 34 ft 7 kts 316°
2026-05-07 22:23 42.35674 -70.99446 34 ft 50 kts 316°
2026-05-07 22:23 42.36085 -70.99997 32 ft 114 kts 315°
2026-05-07 22:24 42.36781 -71.00931 50 ft 164 kts 315°
2026-05-07 22:24 42.37634 -71.02076 583 ft 173 kts 314°
2026-05-07 22:24 42.38499 -71.03228 1305 ft 175 kts 313°
2026-05-07 22:24 42.39206 -71.04546 2064 ft 171 kts 297°
2026-05-07 22:25 42.39745 -71.06009 2632 ft 176 kts 296°
2026-05-07 22:25 42.40290 -71.07504 3195 ft 181 kts 297°
2026-05-07 22:25 42.40916 -71.09020 3773 ft 189 kts 304°
2026-05-07 22:25 42.41917 -71.10249 4224 ft 206 kts 328°
2026-05-07 22:26 42.43337 -71.11020 4676 ft 225 kts 336°
2026-05-07 22:26 42.44898 -71.11832 5128 ft 247 kts 336°
2026-05-07 22:26 42.46543 -71.12728 5827 ft 258 kts 335°
2026-05-07 22:26 42.48204 -71.13650 6736 ft 261 kts 335°
2026-05-07 22:27 42.49892 -71.14581 7722 ft 263 kts 334°
2026-05-07 22:27 42.51617 -71.15480 8719 ft 266 kts 336°
2026-05-07 22:27 42.53378 -71.16287 9764 ft 267 kts 335°
2026-05-07 22:27 42.55155 -71.17093 10627 ft 273 kts 334°
2026-05-07 22:28 42.57007 -71.17941 11181 ft 290 kts 334°
2026-05-07 22:28 42.58979 -71.18851 11685 ft 308 kts 334°
2026-05-07 22:28 42.61070 -71.19811 12209 ft 325 kts 334°
2026-05-07 22:28 42.63233 -71.20794 12976 ft 334 kts 333°
2026-05-07 22:29 42.65451 -71.21795 13846 ft 339 kts 333°
2026-05-07 22:29 42.67704 -71.22820 14626 ft 345 kts 332°
2026-05-07 22:29 42.70006 -71.23871 15347 ft 352 kts 332°
2026-05-07 22:29 42.72356 -71.24945 16074 ft 359 kts 331°
2026-05-07 22:30 42.74741 -71.26092 16792 ft 361 kts 325°
2026-05-07 22:30 42.76749 -71.27967 17490 ft 343 kts 304°
2026-05-07 22:30 42.78084 -71.30551 18279 ft 326 kts 286°
2026-05-07 22:30 42.78715 -71.33448 19021 ft 315 kts 272°
2026-05-07 22:31 42.79044 -71.36416 19764 ft 318 kts 271°
2026-05-07 22:31 42.79690 -71.42197 21128 ft 324 kts 271°
2026-05-07 22:31 42.81359 -71.57284 24550 ft 337 kts 271°
2026-05-07 22:31 42.83854 -71.80267 27774 ft 377 kts 272°
2026-05-07 22:32 42.86433 -72.04429 30903 ft 403 kts 272°
2026-05-07 22:32 42.88995 -72.28847 34931 ft 388 kts 271°
2026-05-07 22:32 42.91435 -72.52712 37473 ft 386 kts 271°
2026-05-07 22:32 42.93873 -72.77101 39123 ft 394 kts 271°
2026-05-07 22:33 42.96328 -73.02156 39858 ft 405 kts 272°
2026-05-07 22:33 42.99883 -73.53716 39849 ft 402 kts 268°
2026-05-07 22:34 43.01030 -74.06433 39876 ft 404 kts 268°
2026-05-07 22:34 43.02965 -74.60916 39884 ft 410 kts 270°
2026-05-07 22:35 43.05190 -75.15432 39887 ft 411 kts 270°
2026-05-07 22:35 43.06810 -75.69547 39903 ft 411 kts 269°
2026-05-07 22:36 43.08052 -76.22771 39908 ft 413 kts 269°
2026-05-07 22:36 43.08857 -76.66481 39927 ft 414 kts 267°
2026-05-07 22:37 43.08525 -76.74351 39948 ft 413 kts 263°
2026-05-07 22:37 43.08006 -76.82212 39937 ft 413 kts 263°
2026-05-07 22:38 43.07479 -76.90006 39911 ft 414 kts 263°
2026-05-07 22:38 43.06940 -76.97853 39922 ft 412 kts 263°
2026-05-07 22:39 43.06398 -77.05658 39923 ft 412 kts 263°
2026-05-07 22:39 43.05850 -77.13458 39926 ft 411 kts 263°
2026-05-07 22:40 43.05299 -77.21224 39912 ft 411 kts 263°
2026-05-07 22:40 43.04738 -77.29038 39711 ft 412 kts 263°
2026-05-07 22:40 43.04457 -77.32934 39465 ft 410 kts 263°
2026-05-07 22:41 43.04177 -77.36802 39158 ft 407 kts 263°
2026-05-07 22:41 43.03896 -77.40655 38732 ft 406 kts 263°
2026-05-07 22:41 43.03615 -77.44501 38172 ft 405 kts 263°
2026-05-07 22:41 43.03333 -77.48332 37629 ft 404 kts 263°
2026-05-07 22:42 43.03050 -77.52166 37097 ft 404 kts 263°
2026-05-07 22:42 43.02767 -77.55984 36563 ft 403 kts 263°
2026-05-07 22:42 43.02482 -77.59806 36016 ft 403 kts 263°
2026-05-07 22:42 43.02197 -77.63577 35419 ft 403 kts 263°
2026-05-07 22:43 43.01909 -77.67406 34820 ft 404 kts 263°
2026-05-07 22:43 43.01620 -77.71232 34220 ft 404 kts 263°
2026-05-07 22:43 43.01328 -77.75072 33557 ft 404 kts 263°
2026-05-07 22:43 43.01037 -77.78907 32878 ft 404 kts 263°
2026-05-07 22:44 43.00746 -77.82715 32243 ft 403 kts 262°
2026-05-07 22:44 43.00453 -77.86526 31596 ft 402 kts 262°
2026-05-07 22:44 43.00163 -77.90279 30960 ft 401 kts 262°
2026-05-07 22:44 42.99870 -77.94060 30312 ft 400 kts 262°
2026-05-07 22:45 42.99575 -77.97839 29556 ft 399 kts 262°
2026-05-07 22:45 42.99279 -78.01599 28968 ft 394 kts 262°
2026-05-07 22:45 42.98991 -78.05277 28675 ft 383 kts 262°
2026-05-07 22:45 42.98709 -78.08860 28366 ft 373 kts 262°
2026-05-07 22:46 42.98431 -78.12369 28049 ft 369 kts 262°
2026-05-07 22:46 42.98152 -78.15858 27701 ft 368 kts 262°
2026-05-07 22:46 42.97875 -78.19323 27326 ft 366 kts 262°
2026-05-07 22:46 42.97601 -78.22732 26948 ft 363 kts 262°
2026-05-07 22:47 42.97325 -78.26162 26568 ft 361 kts 262°
2026-05-07 22:47 42.97050 -78.29566 26190 ft 359 kts 262°
2026-05-07 22:47 42.96776 -78.32947 25819 ft 356 kts 261°
2026-05-07 22:47 42.96502 -78.36305 25452 ft 354 kts 261°
2026-05-07 22:48 42.96229 -78.39647 25080 ft 352 kts 261°
2026-05-07 22:48 42.95957 -78.42963 24714 ft 349 kts 261°
2026-05-07 22:48 42.95687 -78.46253 24313 ft 347 kts 261°
2026-05-07 22:48 42.95417 -78.49526 23891 ft 345 kts 261°
2026-05-07 22:49 42.95147 -78.52784 23451 ft 344 kts 261°
2026-05-07 22:49 42.94876 -78.56031 22935 ft 342 kts 261°
2026-05-07 22:49 42.94610 -78.59216 22496 ft 340 kts 261°
2026-05-07 22:49 42.94342 -78.62409 22079 ft 336 kts 261°
2026-05-07 22:50 42.94074 -78.65583 21670 ft 333 kts 261°
2026-05-07 22:50 42.93810 -78.68718 21283 ft 330 kts 262°
2026-05-07 22:50 42.93829 -78.71857 20855 ft 333 kts 275°
2026-05-07 22:50 42.94483 -78.74931 20427 ft 340 kts 289°
2026-05-07 22:51 42.95718 -78.77713 20042 ft 347 kts 302°
2026-05-07 22:51 42.97229 -78.80280 19652 ft 345 kts 303°
2026-05-07 22:51 42.98730 -78.82780 19276 ft 344 kts 303°
2026-05-07 22:51 43.00247 -78.85299 18897 ft 342 kts 303°
2026-05-07 22:52 43.01756 -78.87803 18518 ft 341 kts 304°
2026-05-07 22:52 43.03267 -78.90312 18117 ft 340 kts 304°
2026-05-07 22:52 43.04769 -78.92809 17687 ft 338 kts 304°
2026-05-07 22:52 43.06260 -78.95288 17314 ft 336 kts 304°
2026-05-07 22:53 43.07743 -78.97754 16931 ft 334 kts 304°
2026-05-07 22:53 43.09216 -79.00210 16542 ft 332 kts 304°
2026-05-07 22:53 43.10683 -79.02658 16180 ft 331 kts 305°
2026-05-07 22:53 43.12140 -79.05091 15791 ft 329 kts 305°
2026-05-07 22:54 43.13595 -79.07520 15414 ft 329 kts 306°
2026-05-07 22:54 43.15029 -79.09914 15019 ft 329 kts 306°
2026-05-07 22:54 43.16489 -79.12352 14625 ft 328 kts 306°
2026-05-07 22:54 43.17938 -79.14775 14240 ft 328 kts 306°
2026-05-07 22:55 43.19381 -79.17190 13858 ft 327 kts 306°
2026-05-07 22:55 43.20823 -79.19605 13450 ft 326 kts 306°
2026-05-07 22:55 43.22256 -79.22009 13062 ft 324 kts 306°
2026-05-07 22:55 43.23682 -79.24402 12688 ft 322 kts 306°
2026-05-07 22:56 43.24640 -79.26011 12433 ft 321 kts 306°
2026-05-07 22:56 43.26513 -79.29160 11956 ft 318 kts 306°
2026-05-07 22:56 43.27437 -79.30716 11713 ft 316 kts 306°
2026-05-07 22:56 43.28827 -79.33054 11388 ft 312 kts 307°
2026-05-07 22:57 43.30904 -79.35663 11289 ft 299 kts 321°
2026-05-07 22:57 43.32684 -79.37065 11188 ft 290 kts 330°
2026-05-07 22:57 43.33874 -79.37844 11138 ft 282 kts 330°
2026-05-07 22:57 43.35630 -79.38950 11060 ft 271 kts 330°
2026-05-07 22:58 43.37323 -79.40024 10903 ft 267 kts 329°
2026-05-07 22:58 43.39016 -79.41110 10627 ft 265 kts 329°
2026-05-07 22:58 43.40681 -79.42181 10373 ft 263 kts 329°
2026-05-07 22:58 43.42339 -79.43252 10117 ft 262 kts 330°
2026-05-07 22:59 43.43984 -79.44310 9850 ft 260 kts 330°
2026-05-07 22:59 43.45623 -79.45361 9532 ft 259 kts 330°
2026-05-07 22:59 43.47293 -79.46434 9225 ft 256 kts 330°
2026-05-07 22:59 43.48897 -79.47466 8941 ft 253 kts 330°
2026-05-07 23:00 43.50463 -79.48475 8669 ft 250 kts 330°
2026-05-07 23:00 43.52039 -79.49492 8393 ft 248 kts 331°
2026-05-07 23:00 43.53597 -79.50499 8115 ft 246 kts 331°
2026-05-07 23:00 43.55163 -79.51510 7940 ft 256 kts 330°
2026-05-07 23:01 43.56747 -79.52522 8039 ft 243 kts 330°
2026-05-07 23:01 43.58328 -79.53277 7747 ft 241 kts 350°
2026-05-07 23:01 43.59990 -79.53072 7445 ft 242 kts 15°
2026-05-07 23:01 43.61457 -79.51894 7077 ft 249 kts 40°
2026-05-07 23:02 43.62678 -79.50177 6822 ft 247 kts 44°
2026-05-07 23:02 43.63813 -79.48471 6616 ft 242 kts 44°
2026-05-07 23:02 43.64951 -79.46762 6353 ft 240 kts 44°
2026-05-07 23:02 43.66090 -79.45069 6083 ft 239 kts 44°
2026-05-07 23:03 43.67221 -79.43400 5805 ft 237 kts 44°
2026-05-07 23:03 43.68352 -79.41736 5526 ft 236 kts 43°
2026-05-07 23:03 43.69478 -79.40086 5235 ft 235 kts 43°
2026-05-07 23:03 43.70608 -79.38438 4981 ft 233 kts 43°
2026-05-07 23:04 43.71741 -79.36842 4712 ft 230 kts 34°
2026-05-07 23:04 43.73156 -79.35981 4341 ft 221 kts
2026-05-07 23:04 43.74619 -79.36371 3986 ft 214 kts 329°
2026-05-07 23:04 43.75856 -79.37492 3738 ft 212 kts 321°
2026-05-07 23:05 43.77012 -79.38762 3440 ft 212 kts 315°
2026-05-07 23:05 43.77755 -79.40458 3152 ft 212 kts 281°
2026-05-07 23:05 43.77747 -79.42481 3017 ft 212 kts 263°
2026-05-07 23:05 43.77464 -79.44485 2992 ft 209 kts 250°
2026-05-07 23:06 43.76743 -79.46203 3005 ft 204 kts 235°
2026-05-07 23:06 43.75844 -79.47638 2991 ft 191 kts 232°
2026-05-07 23:06 43.74931 -79.48962 2742 ft 188 kts 230°
2026-05-07 23:06 43.74028 -79.50252 2504 ft 183 kts 230°
2026-05-07 23:07 43.73169 -79.51490 2239 ft 172 kts 230°
2026-05-07 23:07 43.72368 -79.52658 2008 ft 162 kts 230°
2026-05-07 23:07 43.71614 -79.53761 1784 ft 156 kts 230°
2026-05-07 23:07 43.70874 -79.54843 1575 ft 153 kts 230°
2026-05-07 23:08 43.70143 -79.55905 1366 ft 152 kts 231°
2026-05-07 23:08 43.69403 -79.56985 1122 ft 154 kts 230°
2026-05-07 23:08 43.68656 -79.58076 945 ft 157 kts 231°
2026-05-07 23:08 43.67908 -79.59168 743 ft 155 kts 229°
2026-05-07 23:09 43.67161 -79.60250 575 ft 149 kts 225°
2026-05-07 23:09 43.66604 -79.61063 574 ft 84 kts 227°
2026-05-07 23:09 43.66339 -79.61448 572 ft 40 kts 226°
2026-05-07 23:09 43.66150 -79.61724 574 ft 39 kts 226°
2026-05-07 23:10 43.66017 -79.61977 575 ft 29 kts 248°
2026-05-07 23:10 43.65997 -79.62193 571 ft 22 kts 299°
2026-05-07 23:10 43.66108 -79.62348 572 ft 23 kts 316°
2026-05-07 23:10 43.66220 -79.62484 570 ft 17 kts 333°
2026-05-07 23:11 43.66333 -79.62431 575 ft 20 kts 41°
2026-05-07 23:11 43.66435 -79.62302 577 ft 21 kts 42°
2026-05-07 23:11 43.66546 -79.62163 576 ft 22 kts 42°
2026-05-07 23:11 43.66664 -79.62014 581 ft 23 kts 42°
2026-05-07 23:12 43.66789 -79.61857 581 ft 25 kts 42°
2026-05-07 23:12 43.66911 -79.61704 582 ft 18 kts 42°
2026-05-07 23:12 43.66982 -79.61654 580 ft 12 kts 345°
2026-05-07 23:12 43.67056 -79.61736 577 ft 16 kts 316°
2026-05-07 23:13 43.67144 -79.61851 578 ft 19 kts 316°
2026-05-07 23:13 43.67249 -79.61988 578 ft 22 kts 316°
2026-05-07 23:13 43.67367 -79.62142 580 ft 24 kts 316°
2026-05-07 23:13 43.67497 -79.62311 579 ft 27 kts 316°
2026-05-07 23:14 43.67636 -79.62493 578 ft 29 kts 317°
2026-05-07 23:14 43.67785 -79.62687 577 ft 30 kts 316°
2026-05-07 23:14 43.67903 -79.62839 579 ft 18 kts 317°
2026-05-07 23:14 43.67951 -79.62906 583 ft 7 kts 303°
2026-05-07 23:15 43.67941 -79.62978 581 ft 10 kts 237°
2026-05-07 23:15 43.67889 -79.63063 579 ft 13 kts 226°
2026-05-07 23:15 43.67815 -79.63167 580 ft 17 kts 226°
2026-05-07 23:15 43.67770 -79.63235 579 ft 3 kts 245°
2026-05-07 23:16 43.67779 -79.63280 581 ft 7 kts 307°
2026-05-07 23:16 43.67796 -79.63309 577 ft 1 kts 316°
2026-05-07 23:16 43.67800 -79.63316 580 ft 0 kts 316°